Date String (YYYY-MM-DD hh:mm:ss) UTC,Instrument flags,Ambient pressure (hPa),Sample flow (lpm),Bypass flow (lpm),Sample temperature (°C),Ambient temperature (°C),ASC tube jacket temperature (°C),LED temperature (°C),Box temperature (°C),Sample RH (%),Span deviation,Mass concentration (μg/m³),Mass concentration (μg/m³),Mass concentration (μg/m³)
DateTimeUTC,F1_M11,P_M11,Q1_M11,Q2_M11,T1_M11,T2_M11,T3_M11,T4_M11,T5_M11,U1_M11,ZSPAN_M11,X0_M11,X2_M11,X1_M11
2022-03-22 02:00:00,,0825.6,4.98,0.00,22.0,21.3,00.0,31.1,23.8,11.1,0000.0,0007.14,0001.84,0001.23
2022-03-22 02:01:00,,0825.7,5.01,0.00,22.1,21.3,00.0,31.1,23.8,11.3,0000.0,0007.23,0001.83,0001.23
2022-03-22 02:02:00,,0825.7,5.00,0.00,22.1,21.3,00.0,31.1,23.8,11.2,0000.0,0007.33,0001.85,0001.24
2022-03-22 02:03:00,,0825.7,5.00,0.00,22.1,21.3,00.0,31.1,23.9,11.2,0000.0,0007.26,0001.80,0001.23
2022-03-22 02:04:00,,0825.7,5.00,0.00,22.1,21.3,00.0,31.1,23.8,11.1,0000.0,0007.34,0001.83,0001.23
2022-03-22 02:05:00,,0825.7,5.01,0.00,22.1,21.3,00.0,31.1,23.9,11.3,0000.0,0007.42,0001.88,0001.23
2022-03-22 02:06:00,,0825.7,5.00,0.00,22.1,21.3,00.0,31.1,23.8,11.2,0000.0,0007.53,0001.96,0001.25
2022-03-22 02:07:00,,0825.8,4.99,0.00,22.1,21.3,00.0,31.1,23.8,11.1,0000.0,0007.18,0001.96,0001.25
2022-03-22 02:08:00,,0825.8,5.00,0.00,22.1,21.3,00.0,31.1,23.8,11.0,0000.0,0005.59,0001.94,0001.26
2022-03-22 02:09:00,,0825.7,5.00,0.00,22.1,21.3,00.0,31.1,23.8,10.9,0000.0,0005.60,0001.97,0001.27
2022-03-22 02:10:00,,0825.7,4.98,0.00,22.1,21.3,00.0,31.1,23.8,10.8,0000.0,0003.81,0002.00,0001.28
2022-03-22 02:11:00,,0825.8,5.00,0.00,22.0,21.3,00.0,31.1,23.8,10.9,0000.0,0004.04,0002.00,0001.29
2022-03-22 02:12:00,,0825.8,5.01,0.00,22.0,21.3,00.0,31.1,23.8,10.9,0000.0,0004.22,0002.03,0001.30
2022-03-22 02:13:00,,0825.8,5.00,0.00,22.0,21.3,00.0,31.1,23.8,11.0,0000.0,0005.12,0002.05,0001.30
2022-03-22 02:14:00,,0825.8,5.00,0.00,22.0,21.2,00.0,31.1,23.8,11.0,0000.0,0005.22,0002.08,0001.31
2022-03-22 02:15:00,,0825.8,4.99,0.00,22.0,21.2,00.0,31.1,23.8,11.0,0000.0,0005.23,0002.06,0001.32
2022-03-22 02:16:00,,0825.9,4.99,0.00,22.0,21.2,00.0,31.1,23.8,11.0,0000.0,0005.01,0001.99,0001.32
2022-03-22 02:17:00,,0825.9,5.00,0.00,22.0,21.2,00.0,31.1,23.8,10.9,0000.0,0004.96,0001.97,0001.33
2022-03-22 02:18:00,,0825.9,5.00,0.00,22.0,21.2,00.0,31.1,23.7,11.0,0000.0,0004.95,0001.98,0001.33
2022-03-22 02:19:00,,0825.9,4.99,0.00,22.0,21.2,00.0,31.0,23.7,11.1,0000.0,0004.96,0002.00,0001.33
2022-03-22 02:20:00,,0825.9,5.01,0.00,22.0,21.4,00.0,31.1,23.8,11.1,0000.0,0005.01,0002.02,0001.32
2022-03-22 02:21:00,,0825.9,5.00,0.00,22.1,22.2,00.0,31.1,24.0,11.0,0000.0,0005.05,0002.06,0001.32
2022-03-22 02:22:00,,0826.0,5.01,0.00,22.3,22.9,00.0,31.1,24.3,11.0,0000.0,0005.01,0002.15,0001.34
2022-03-22 02:23:00,,0826.0,5.00,0.00,22.3,22.7,00.0,31.2,24.3,11.0,0000.0,0005.48,0002.16,0001.34
2022-03-22 02:24:00,,0826.0,5.00,0.00,22.4,22.5,00.0,31.2,24.3,10.9,0000.0,0004.60,0002.14,0001.34
2022-03-22 02:25:00,,0826.0,4.99,0.00,22.4,22.4,00.0,31.2,24.3,11.0,0000.0,0004.43,0002.11,0001.33
2022-03-22 02:26:00,,0826.0,5.01,0.00,22.4,22.3,00.0,31.2,24.3,11.0,0000.0,0004.22,0002.06,0001.33
2022-03-22 02:27:00,,0826.0,5.01,0.00,22.4,22.2,00.0,31.3,24.3,11.1,0000.0,0004.70,0002.11,0001.33
2022-03-22 02:28:00,,0826.0,4.99,0.00,22.4,22.1,00.0,31.3,24.3,10.9,0000.0,0004.85,0002.12,0001.32
2022-03-22 02:29:00,,0826.1,5.00,0.00,22.4,22.0,00.0,31.3,24.2,10.9,0000.0,0004.83,0002.13,0001.33
2022-03-22 02:30:00,,0826.1,5.01,0.00,22.4,21.9,00.0,31.3,24.3,10.9,0000.0,0005.45,0002.15,0001.35
2022-03-22 02:31:00,,0826.1,5.01,0.00,22.4,21.9,00.0,31.3,24.3,10.8,0000.0,0005.62,0002.11,0001.36
2022-03-22 02:32:00,,0826.1,4.98,0.00,22.4,21.8,00.0,31.3,24.2,10.5,0000.0,0006.01,0002.10,0001.36
2022-03-22 02:33:00,,0826.1,5.00,0.00,22.4,21.8,00.0,31.3,24.2,10.8,0000.0,0005.88,0002.08,0001.36
2022-03-22 02:34:00,,0826.1,5.00,0.00,22.4,21.8,00.0,31.3,24.2,10.8,0000.0,0005.28,0002.08,0001.38
2022-03-22 02:35:00,,0826.1,5.01,0.00,22.4,21.8,00.0,31.3,24.2,10.8,0000.0,0005.32,0002.16,0001.40
2022-03-22 02:36:00,,0826.1,5.01,0.00,22.4,21.7,00.0,31.3,24.2,10.7,0000.0,0005.59,0002.23,0001.42
2022-03-22 02:37:00,,0826.1,5.00,0.00,22.4,21.7,00.0,31.4,24.2,10.7,0000.0,0005.81,0002.33,0001.44
2022-03-22 02:38:00,,0826.1,4.98,0.00,22.4,21.6,00.0,31.3,24.1,10.9,0000.0,0005.84,0002.37,0001.47
2022-03-22 02:39:00,,0826.2,5.01,0.00,22.4,21.6,00.0,31.3,24.1,10.7,0000.0,0006.25,0002.38,0001.50
2022-03-22 02:40:00,,0826.3,5.00,0.00,22.4,21.6,00.0,31.4,24.1,10.8,0000.0,0006.33,0002.41,0001.51
2022-03-22 02:41:00,,0826.2,5.01,0.00,22.4,21.6,00.0,31.4,24.1,10.8,0000.0,0006.01,0002.45,0001.52
2022-03-22 02:42:00,,0826.3,5.00,0.00,22.4,21.6,00.0,31.4,24.1,10.8,0000.0,0005.61,0002.42,0001.53
2022-03-22 02:43:00,,0826.3,4.98,0.00,22.4,21.6,00.0,31.4,24.1,10.7,0000.0,0006.29,0002.41,0001.55
2022-03-22 02:44:00,,0826.3,5.01,0.00,22.3,21.6,00.0,31.4,24.1,10.7,0000.0,0006.21,0002.36,0001.57
2022-03-22 02:45:00,,0826.4,5.00,0.00,22.3,21.6,00.0,31.4,24.0,10.8,0000.0,0006.66,0002.40,0001.59
2022-03-22 02:46:00,,0826.4,5.00,0.00,22.3,21.6,00.0,31.4,24.0,10.9,0000.0,0007.25,0002.39,0001.59
2022-03-22 02:47:00,,0826.4,5.00,0.00,22.3,21.5,00.0,31.3,24.1,10.9,0000.0,0007.17,0002.36,0001.60
2022-03-22 02:48:00,,0826.4,5.00,0.00,22.3,21.5,00.0,31.3,24.1,10.9,0000.0,0007.08,0002.35,0001.64
2022-03-22 02:49:00,,0826.4,4.98,0.00,22.3,21.5,00.0,31.3,24.1,11.0,0000.0,0007.10,0002.37,0001.68
2022-03-22 02:50:00,,0826.3,5.01,0.00,22.3,21.5,00.0,31.3,24.1,11.1,0000.0,0006.39,0002.40,0001.70
2022-03-22 02:51:00,,0826.4,5.01,0.00,22.3,21.5,00.0,31.3,24.1,11.1,0000.0,0006.57,0002.50,0001.72
2022-03-22 02:52:00,,0826.5,5.01,0.00,22.3,21.5,00.0,31.3,24.1,11.1,0000.0,0006.70,0002.59,0001.76
2022-03-22 02:53:00,,0826.5,4.99,0.00,22.3,21.5,00.0,31.3,24.1,11.2,0000.0,0007.77,0002.70,0001.81
2022-03-22 02:54:00,,0826.5,4.99,0.00,22.3,21.5,00.0,31.3,24.1,11.2,0000.0,0007.55,0002.78,0001.86
2022-03-22 02:55:00,,0826.5,5.01,0.00,22.3,21.5,00.0,31.3,24.1,11.2,0000.0,0007.39,0002.86,0001.92
2022-03-22 02:56:00,,0826.5,5.01,0.00,22.3,21.5,00.0,31.3,24.1,11.3,0000.0,0007.22,0002.95,0002.00
2022-03-22 02:57:00,,0826.5,5.00,0.00,22.3,21.5,00.0,31.3,24.1,11.1,0000.0,0006.60,0003.00,0002.07
2022-03-22 02:58:00,,0826.5,5.00,0.00,22.3,21.5,00.0,31.3,24.1,11.1,0000.0,0006.79,0003.11,0002.14
2022-03-22 02:59:00,,0826.4,5.00,0.00,22.3,21.5,00.0,31.3,24.0,11.2,0000.0,0006.81,0003.15,0002.18
